Total_Precipitation_Accumulation
0.04 0.04 0.04 0.05 0.05 0.03 0.03 0.03 0.02 0.02 0.02 0.02 0.02 0.02 0.02 0.02 0.02 0.01 0.03 0.03 0.02 0.02 0.02 0.01 0.01 0.01 0.01 0.01 0.01 0.00 0.00 0.01 0.00 0.00 0.00 0.00 0.00 0.00 0.00 0.00 0.00 0.00 0.00 0.00 0.00 0.00 0.01 0.00 0.00 0.00 0.00 0.00 0.01 0.04 0.21 0.31 0.60 0.97 2.21 2.36 2.61 2.84 2.97 1.96 2.48 1.87 1.11 1.74 0.72 1.23 1.40 1.14 0.78 0.40 0.57 0.32 0.56 0.63 0.39 0.08 0.04 0.01 0.00 0.00 0.00 0.00 0.00 0.01
0.03 0.03 0.03 0.04 0.04 0.03 0.02 0.02 0.02 0.02 0.02 0.02 0.02 0.02 0.03 0.02 0.03 0.02 0.03 0.03 0.03 0.02 0.01 0.02 0.01 0.01 0.01 0.00 0.00 0.00 0.01 0.00 0.00 0.00 0.00 0.00 0.00 0.00 0.00 0.00 0.00 0.00 0.00 0.00 0.00 0.00 0.00 0.00 0.00 0.00 0.00 0.01 0.00 0.13 0.16 1.31 0.43 2.14 1.21 2.48 3.78 2.44 2.72 1.91 2.00 1.36 1.83 1.33 1.18 1.61 1.18 1.37 0.95 1.11 0.50 0.58 0.27 0.59 0.38 0.24 0.02 0.02 0.01 0.00 0.00 0.00 0.01 0.03
0.03 0.03 0.03 0.03 0.02 0.02 0.02 0.02 0.03 0.03 0.03 0.02 0.02 0.02 0.02 0.03 0.02 0.02 0.03 0.03 0.02 0.02 0.02 0.02 0.01 0.01 0.01 0.01 0.00 0.00 0.01 0.00 0.00 0.00 0.00 0.00 0.00 0.00 0.00 0.00 0.00 0.00 0.00 0.00 0.00 0.00 0.00 0.00 0.00 0.00 0.00 0.01 0.02 0.20 0.29 1.24 0.39 0.93 2.05 2.70 2.53 2.35 2.71 2.10 1.85 1.82 2.00 0.59 1.05 1.31 1.42 1.87 0.82 0.55 0.15 0.91 0.39 0.25 0.27 0.04 0.04 0.02 0.01 0.01 0.01 0.00 0.03 0.03
0.03 0.04 0.03 0.03 0.02 0.02 0.02 0.01 0.01 0.02 0.03 0.03 0.03 0.02 0.02 0.03 0.03 0.02 0.02 0.02 0.01 0.02 0.02 0.02 0.01 0.01 0.01 0.00 0.00 0.00 0.00 0.00 0.00 0.00 0.00 0.00 0.00 0.00 0.00 0.00 0.00 0.00 0.00 0.00 0.00 0.00 0.00 0.00 0.00 0.00 0.00 0.00 0.02 0.17 0.63 0.59 0.36 1.09 1.44 1.88 2.53 1.71 2.17 2.17 2.23 1.53 1.44 1.09 0.98 0.93 0.87 0.70 0.68 1.09 0.98 0.49 0.20 0.41 0.09 0.06 0.03 0.01 0.01 0.01 0.00 0.00 0.01 0.02
0.03 0.03 0.04 0.02 0.02 0.02 0.02 0.02 0.01 0.02 0.01 0.02 0.02 0.03 0.03 0.02 0.02 0.02 0.02 0.02 0.02 0.02 0.02 0.02 0.01 0.01 0.00 0.00 0.00 0.00 0.00 0.00 0.00 0.00 0.00 0.00 0.00 0.00 0.00 0.00 0.00 0.00 0.00 0.00 0.00 0.00 0.00 0.00 0.00 0.00 0.00 0.04 0.01 0.11 0.43 0.61 0.09 0.21 1.51 1.19 1.21 1.33 2.02 2.30 2.57 1.57 1.11 1.25 1.09 1.04 0.84 1.29 0.51 0.44 0.92 0.98 0.95 0.41 0.13 0.04 0.01 0.00 0.00 0.00 0.00 0.00 0.00 0.01
0.03 0.04 0.02 0.02 0.02 0.02 0.02 0.01 0.01 0.02 0.01 0.01 0.02 0.02 0.03 0.02 0.01 0.02 0.01 0.02 0.02 0.02 0.02 0.02 0.02 0.01 0.01 0.00 0.00 0.01 0.00 0.00 0.00 0.00 0.00 0.00 0.00 0.00 0.00 0.00 0.00 0.00 0.00 0.00 0.00 0.00 0.00 0.00 0.00 0.00 0.00 0.00 0.01 0.08 0.53 0.37 0.41 1.80 1.19 0.81 1.58 0.98 2.03 1.57 2.06 1.87 1.84 1.44 1.43 0.78 1.43 0.97 0.36 0.34 0.21 0.77 1.43 0.70 0.13 0.02 0.00 0.00 0.01 0.00 0.00 0.00 0.01 0.01
0.03 0.03 0.02 0.02 0.02 0.02 0.02 0.02 0.02 0.02 0.02 0.02 0.02 0.02 0.02 0.02 0.01 0.01 0.02 0.02 0.02 0.02 0.02 0.01 0.01 0.01 0.00 0.00 0.00 0.00 0.00 0.00 0.00 0.00 0.00 0.00 0.00 0.00 0.00 0.00 0.00 0.00 0.00 0.00 0.00 0.00 0.00 0.00 0.00 0.00 0.00 0.00 0.00 0.06 0.21 0.53 0.23 0.37 1.20 0.59 1.00 1.23 1.77 1.38 1.54 1.64 2.33 1.67 1.24 0.97 0.79 0.76 0.30 0.69 0.55 1.04 0.35 0.26 0.30 0.03 0.01 0.00 0.00 0.00 0.00 0.00 0.00 0.00
0.03 0.02 0.01 0.02 0.02 0.02 0.02 0.02 0.03 0.03 0.02 0.03 0.03 0.04 0.03 0.03 0.02 0.02 0.02 0.02 0.02 0.01 0.02 0.01 0.02 0.00 0.00 0.00 0.00 0.00 0.00 0.00 0.00 0.00 0.00 0.00 0.00 0.00 0.00 0.00 0.00 0.00 0.00 0.00 0.00 0.00 0.00 0.00 0.00 0.00 0.00 0.02 0.01 0.11 0.32 0.32 0.13 0.74 0.80 0.75 1.02 1.42 1.52 1.44 1.27 1.89 1.86 1.72 1.29 0.66 0.72 0.98 1.03 0.86 0.36 0.53 0.12 0.21 0.16 0.06 0.01 0.00 0.00 0.00 0.00 0.00 0.00 0.01
0.02 0.02 0.01 0.01 0.01 0.02 0.02 0.02 0.03 0.04 0.04 0.03 0.04 0.03 0.03 0.02 0.02 0.02 0.01 0.02 0.02 0.02 0.01 0.02 0.00 0.00 0.01 0.00 0.00 0.00 0.00 0.00 0.00 0.00 0.00 0.00 0.00 0.00 0.00 0.00 0.00 0.00 0.00 0.00 0.00 0.00 0.00 0.00 0.00 0.00 0.02 0.01 0.01 0.05 0.15 0.27 0.75 0.22 0.50 0.61 0.78 1.11 1.38 1.66 1.63 2.17 2.50 1.46 1.24 0.96 0.97 1.33 1.36 0.66 0.84 0.18 0.19 0.12 0.15 0.01 0.01 0.00 0.00 0.00 0.00 0.00 0.00 0.00
0.02 0.01 0.01 0.02 0.02 0.01 0.02 0.02 0.02 0.03 0.02 0.02 0.02 0.02 0.03 0.02 0.01 0.02 0.02 0.02 0.02 0.01 0.01 0.01 0.01 0.01 0.00 0.00 0.00 0.00 0.00 0.00 0.00 0.00 0.00 0.00 0.00 0.00 0.00 0.00 0.00 0.00 0.00 0.00 0.00 0.00 0.00 0.00 0.00 0.00 0.00 0.00 0.03 0.12 0.11 0.04 0.25 0.09 0.47 0.47 1.12 1.30 1.30 1.98 1.48 1.67 2.17 2.29 1.44 0.84 0.46 0.67 0.56 0.35 0.98 0.13 0.04 0.04 0.22 0.07 0.02 0.00 0.00 0.00 0.00 0.00 0.00 0.00
0.01 0.01 0.01 0.01 0.01 0.01 0.02 0.02 0.02 0.02 0.02 0.02 0.02 0.02 0.02 0.02 0.02 0.02 0.01 0.01 0.01 0.01 0.01 0.01 0.00 0.00 0.00 0.00 0.00 0.00 0.00 0.00 0.00 0.00 0.00 0.00 0.00 0.00 0.00 0.00 0.00 0.00 0.00 0.00 0.00 0.00 0.00 0.00 0.00 0.00 0.00 0.05 0.00 0.03 0.01 0.07 0.10 0.34 0.45 0.15 0.82 1.70 2.18 1.76 1.40 1.87 2.43 3.03 2.17 2.03 1.52 0.84 0.79 0.36 0.53 0.07 0.05 0.04 0.08 0.04 0.02 0.00 0.00 0.00 0.00 0.00 0.00 0.00
0.00 0.01 0.01 0.01 0.01 0.01 0.01 0.02 0.02 0.03 0.03 0.03 0.02 0.02 0.02 0.01 0.01 0.01 0.01 0.01 0.01 0.01 0.01 0.01 0.00 0.00 0.00 0.00 0.00 0.00 0.00 0.00 0.00 0.00 0.00 0.00 0.00 0.00 0.00 0.00 0.00 0.00 0.00 0.00 0.00 0.00 0.00 0.00 0.00 0.00 0.04 0.00 0.00 0.00 0.09 0.13 0.07 0.08 0.37 0.54 1.05 2.53 2.97 2.28 2.31 1.98 1.98 2.56 2.06 2.42 1.75 1.08 0.49 1.31 0.38 0.14 0.15 0.07 0.04 0.01 0.00 0.00 0.00 0.00 0.00 0.00 0.00 0.00
0.00 0.01 0.01 0.00 0.01 0.01 0.01 0.02 0.02 0.02 0.02 0.02 0.02 0.02 0.01 0.02 0.01 0.01 0.01 0.00 0.00 0.01 0.01 0.00 0.00 0.00 0.00 0.00 0.00 0.00 0.00 0.00 0.00 0.00 0.00 0.00 0.00 0.00 0.00 0.00 0.00 0.00 0.00 0.00 0.00 0.00 0.00 0.00 0.00 0.00 0.00 0.00 0.00 0.12 0.17 0.07 0.16 0.51 0.41 0.59 0.85 2.02 1.61 2.69 2.92 2.54 2.59 2.26 2.97 1.92 1.85 1.14 1.44 0.60 0.38 0.38 0.07 0.12 0.06 0.02 0.03 0.01 0.00 0.00 0.00 0.00 0.00 0.00
0.01 0.01 0.00 0.01 0.00 0.01 0.01 0.01 0.01 0.02 0.02 0.02 0.01 0.01 0.01 0.01 0.01 0.01 0.00 0.00 0.00 0.01 0.01 0.00 0.00 0.00 0.00 0.00 0.00 0.00 0.00 0.00 0.00 0.00 0.00 0.00 0.00 0.00 0.00 0.00 0.00 0.00 0.00 0.00 0.00 0.00 0.00 0.00 0.00 0.00 0.00 0.00 0.01 0.00 0.23 0.42 0.27 0.89 1.32 0.53 0.70 0.73 1.26 2.74 2.77 2.21 2.70 2.21 2.88 1.77 1.87 1.09 1.42 0.66 0.24 0.16 0.12 0.04 0.09 0.04 0.03 0.03 0.01 0.01 0.00 0.01 0.01 0.00
0.01 0.00 0.01 0.01 0.01 0.01 0.01 0.01 0.02 0.02 0.02 0.01 0.01 0.01 0.01 0.00 0.00 0.00 0.00 0.00 0.02 0.01 0.00 0.01 0.00 0.00 0.00 0.00 0.00 0.00 0.00 0.00 0.00 0.00 0.00 0.00 0.00 0.00 0.00 0.00 0.00 0.00 0.00 0.00 0.00 0.00 0.00 0.00 0.00 0.00 0.00 0.00 0.00 0.00 0.03 0.29 0.59 0.62 0.57 0.89 1.39 0.62 1.82 2.37 2.36 1.96 2.06 1.47 1.89 1.28 1.90 1.17 0.88 0.79 0.97 0.28 0.10 0.05 0.26 0.14 0.10 0.01 0.01 0.01 0.02 0.02 0.03 0.03
0.00 0.01 0.00 0.01 0.01 0.01 0.01 0.01 0.01 0.01 0.01 0.01 0.01 0.01 0.00 0.00 0.00 0.00 0.00 0.00 0.00 0.01 0.01 0.00 0.00 0.00 0.00 0.00 0.00 0.00 0.00 0.00 0.00 0.00 0.00 0.00 0.00 0.00 0.00 0.00 0.00 0.00 0.00 0.00 0.00 0.00 0.00 0.00 0.00 0.00 0.00 0.00 0.00 0.00 0.04 0.17 0.30 0.55 0.62 0.64 0.92 0.48 1.49 1.65 2.24 2.31 2.10 1.47 1.88 1.87 2.51 1.49 1.59 0.77 0.55 0.19 0.37 0.06 0.09 0.19 0.08 0.03 0.01 0.00 0.00 0.03 0.03 0.02
0.00 0.00 0.00 0.01 0.01 0.01 0.01 0.00 0.01 0.01 0.01 0.01 0.00 0.00 0.00 0.00 0.00 0.00 0.00 0.01 0.00 0.00 0.00 0.00 0.00 0.00 0.00 0.00 0.00 0.00 0.00 0.00 0.00 0.00 0.00 0.00 0.00 0.00 0.00 0.00 0.00 0.00 0.00 0.00 0.00 0.00 0.00 0.00 0.00 0.00 0.00 0.00 0.00 0.01 0.10 0.28 0.24 0.49 0.59 0.89 1.09 0.81 0.76 0.98 1.47 1.79 2.05 1.61 2.00 1.26 1.87 1.21 0.53 0.26 0.32 0.34 0.16 0.17 0.03 0.07 0.08 0.04 0.03 0.02 0.02 0.01 0.01 0.05
0.00 0.00 0.00 0.01 0.01 0.01 0.01 0.00 0.01 0.01 0.01 0.00 0.00 0.00 0.00 0.00 0.00 0.00 0.00 0.00 0.00 0.00 0.00 0.00 0.00 0.00 0.00 0.00 0.00 0.00 0.00 0.00 0.00 0.00 0.00 0.00 0.00 0.00 0.00 0.00 0.00 0.00 0.00 0.00 0.00 0.00 0.00 0.00 0.00 0.00 0.00 0.00 0.00 0.02 0.10 0.41 0.46 0.41 0.81 0.61 0.38 0.81 0.34 1.00 0.69 1.46 1.47 2.28 1.85 1.46 1.80 1.50 1.12 0.55 0.62 0.51 0.63 0.21 0.19 0.10 0.06 0.08 0.08 0.03 0.03 0.01 0.04 0.04
0.00 0.00 0.00 0.00 0.01 0.01 0.00 0.01 0.00 0.01 0.01 0.00 0.00 0.00 0.00 0.00 0.00 0.00 0.00 0.00 0.00 0.00 0.00 0.00 0.00 0.00 0.00 0.00 0.00 0.00 0.00 0.00 0.00 0.00 0.00 0.00 0.00 0.00 0.00 0.00 0.00 0.00 0.00 0.00 0.00 0.00 0.00 0.00 0.00 0.00 0.00 0.00 0.00 0.00 0.14 0.19 0.17 0.36 0.53 1.04 1.21 0.68 1.39 0.93 0.45 1.21 0.91 1.51 1.83 1.74 1.88 1.92 1.25 0.77 0.78 0.55 0.40 0.34 0.65 0.15 0.27 0.22 0.37 0.11 0.08 0.04 0.04 0.06
0.00 0.01 0.00 0.00 0.00 0.01 0.01 0.00 0.00 0.01 0.02 0.00 0.00 0.00 0.00 0.00 0.00 0.00 0.00 0.00 0.00 0.00 0.00 0.00 0.00 0.00 0.00 0.00 0.00 0.00 0.00 0.00 0.00 0.00 0.00 0.00 0.00 0.00 0.00 0.00 0.00 0.00 0.00 0.00 0.00 0.00 0.00 0.00 0.00 0.00 0.00 0.00 0.00 0.00 0.04 0.06 0.06 0.23 0.52 0.47 0.57 0.74 0.74 1.15 1.17 1.04 1.26 1.95 1.39 2.00 1.98 2.11 1.51 0.74 1.11 0.51 0.31 0.38 0.42 0.67 0.41 0.22 0.33 0.36 0.31 0.12 0.06 0.07
0.00 0.00 0.00 0.00 0.00 0.00 0.01 0.00 0.00 0.01 0.03 0.00 0.00 0.00 0.00 0.00 0.00 0.00 0.00 0.00 0.00 0.00 0.00 0.00 0.00 0.00 0.00 0.00 0.00 0.00 0.00 0.00 0.00 0.00 0.00 0.00 0.00 0.00 0.00 0.00 0.00 0.00 0.00 0.00 0.00 0.00 0.00 0.00 0.00 0.00 0.00 0.01 0.00 0.00 0.00 0.02 0.09 0.11 0.22 0.36 0.42 0.55 0.98 1.14 1.12 1.71 3.19 2.02 2.35 2.44 1.89 2.48 2.11 1.42 1.36 0.76 0.69 0.50 0.33 0.28 0.71 0.51 0.22 0.17 0.22 0.43 0.26 0.07
0.00 0.00 0.00 0.00 0.00 0.00 0.00 0.00 0.00 0.01 0.01 0.00 0.00 0.00 0.00 0.00 0.00 0.00 0.00 0.00 0.00 0.00 0.00 0.00 0.00 0.00 0.00 0.00 0.00 0.00 0.00 0.00 0.00 0.00 0.00 0.00 0.00 0.00 0.00 0.00 0.00 0.00 0.00 0.00 0.00 0.00 0.00 0.00 0.00 0.00 0.00 0.01 0.00 0.00 0.00 0.03 0.02 0.20 0.19 0.29 0.47 1.04 1.07 1.19 1.59 2.42 2.93 1.61 2.17 2.61 2.17 2.97 2.19 1.58 1.46 1.12 0.55 0.63 0.91 0.57 0.99 0.31 0.41 0.27 0.15 0.18 0.39 0.06
0.00 0.00 0.00 0.00 0.00 0.00 0.00 0.00 0.01 0.01 0.00 0.00 0.00 0.00 0.00 0.00 0.00 0.00 0.00 0.00 0.00 0.00 0.00 0.00 0.00 0.00 0.00 0.00 0.00 0.00 0.00 0.00 0.00 0.00 0.00 0.00 0.00 0.00 0.00 0.00 0.00 0.00 0.00 0.00 0.00 0.00 0.00 0.00 0.00 0.00 0.00 0.00 0.00 0.00 0.00 0.01 0.01 0.16 0.16 0.30 0.50 0.83 0.41 0.51 1.19 1.71 3.02 1.81 1.78 2.00 2.23 2.86 2.61 1.79 1.34 1.68 0.76 0.73 0.52 0.48 0.38 0.73 0.46 0.41 0.21 0.10 0.09 0.06
0.00 0.00 0.00 0.00 0.00 0.00 0.00 0.00 0.02 0.01 0.00 0.00 0.00 0.00 0.00 0.00 0.00 0.00 0.00 0.00 0.01 0.00 0.00 0.00 0.00 0.00 0.00 0.00 0.00 0.00 0.00 0.00 0.00 0.00 0.00 0.00 0.00 0.00 0.00 0.00 0.00 0.00 0.00 0.00 0.00 0.00 0.00 0.00 0.01 0.01 0.00 0.00 0.00 0.00 0.01 0.01 0.04 0.03 0.11 0.30 0.28 0.21 0.40 0.27 0.48 1.24 2.21 1.44 2.36 2.30 2.20 3.03 3.06 2.35 1.76 1.40 1.08 0.62 0.38 0.33 0.23 0.46 0.65 0.63 0.30 0.11 0.06 0.10
0.00 0.00 0.00 0.00 0.00 0.01 0.00 0.01 0.00 0.00 0.00 0.00 0.00 0.00 0.00 0.00 0.00 0.00 0.00 0.00 0.00 0.00 0.00 0.00 0.00 0.00 0.00 0.00 0.00 0.00 0.00 0.00 0.00 0.00 0.00 0.00 0.00 0.00 0.00 0.00 0.00 0.00 0.00 0.00 0.00 0.00 0.00 0.00 0.00 0.00 0.00 0.00 0.00 0.00 0.00 0.00 0.03 0.02 0.01 0.01 0.06 0.19 0.08 0.11 0.25 0.48 1.25 1.91 2.17 1.91 1.90 2.79 2.62 2.09 1.30 1.87 1.11 0.54 0.34 0.24 0.17 0.55 0.69 0.32 0.49 0.27 0.11 0.06
0.00 0.00 0.00 0.00 0.01 0.00 0.01 0.00 0.00 0.00 0.00 0.00 0.00 0.00 0.00 0.00 0.00 0.00 0.00 0.01 0.02 0.00 0.00 0.00 0.00 0.01 0.00 0.00 0.00 0.00 0.00 0.00 0.00 0.00 0.00 0.00 0.00 0.00 0.00 0.00 0.00 0.00 0.00 0.00 0.00 0.00 0.00 0.00 0.00 0.00 0.00 0.00 0.00 0.00 0.00 0.00 0.02 0.00 0.03 0.00 0.04 0.03 0.18 0.17 0.28 0.23 0.68 1.01 1.56 1.41 1.55 1.90 2.48 2.33 1.96 1.89 1.56 0.73 0.93 0.34 0.13 0.22 0.36 0.37 0.25 0.16 0.12 0.12
0.00 0.00 0.00 0.00 0.01 0.01 0.00 0.00 0.00 0.00 0.00 0.00 0.00 0.00 0.00 0.00 0.00 0.00 0.00 0.03 0.04 0.00 0.00 0.00 0.00 0.00 0.00 0.00 0.00 0.00 0.02 0.19 0.00 0.00 0.00 0.00 0.00 0.00 0.00 0.00 0.00 0.00 0.00 0.00 0.00 0.00 0.00 0.00 0.00 0.00 0.00 0.00 0.00 0.00 0.00 0.00 0.00 0.02 0.00 0.01 0.01 0.05 0.14 0.30 0.47 0.54 1.38 1.48 1.50 1.02 1.42 2.07 2.06 1.67 1.79 1.78 1.71 1.34 0.40 0.34 0.43 0.66 0.50 0.22 0.41 0.15 0.12 0.14
0.00 0.00 0.00 0.00 0.00 0.03 0.00 0.00 0.00 0.00 0.00 0.00 0.00 0.00 0.00 0.00 0.00 0.00 0.00 0.04 0.01 0.00 0.01 0.00 0.00 0.00 0.00 0.00 0.00 0.00 0.01 0.00 0.01 0.00 0.00 0.00 0.00 0.00 0.00 0.00 0.00 0.00 0.00 0.00 0.00 0.00 0.00 0.00 0.00 0.00 0.00 0.00 0.00 0.00 0.00 0.00 0.00 0.05 0.00 0.00 0.03 0.08 0.20 0.51 0.48 0.49 0.66 0.53 1.23 1.38 1.32 1.20 1.92 1.63 1.55 1.87 2.22 1.42 0.84 0.40 0.31 0.61 0.60 0.44 0.25 0.21 0.12 0.15
0.00 0.00 0.00 0.00 0.00 0.00 0.00 0.00 0.00 0.00 0.00 0.00 0.00 0.00 0.00 0.00 0.00 0.00 0.03 0.13 0.00 0.00 0.00 0.03 0.00 0.00 0.00 0.00 0.00 0.00 0.00 0.00 0.01 0.00 0.00 0.00 0.00 0.00 0.00 0.00 0.00 0.00 0.00 0.00 0.00 0.00 0.00 0.00 0.00 0.00 0.00 0.00 0.00 0.00 0.00 0.00 0.02 0.01 0.02 0.01 0.02 0.18 0.26 0.39 0.46 0.61 1.25 0.69 0.89 0.76 1.07 0.84 1.24 1.90 1.73 2.11 1.55 1.17 0.94 0.44 0.31 0.31 0.58 0.32 0.23 0.12 0.18 0.17
0.00 0.00 0.00 0.00 0.00 0.00 0.00 0.00 0.00 0.00 0.00 0.00 0.00 0.00 0.00 0.00 0.00 0.14 0.03 0.13 0.00 0.03 0.00 0.00 0.00 0.00 0.00 0.00 0.00 0.00 0.01 0.00 0.00 0.00 0.00 0.00 0.00 0.00 0.00 0.00 0.00 0.00 0.00 0.00 0.00 0.00 0.00 0.00 0.00 0.00 0.00 0.00 0.00 0.00 0.00 0.00 0.00 0.00 0.01 0.02 0.04 0.13 0.28 0.86 1.17 1.08 0.83 0.21 0.52 0.74 0.58 0.36 0.98 1.50 1.77 1.47 1.96 1.68 1.25 0.37 0.38 0.55 0.44 0.14 0.14 0.18 0.24 0.17
0.00 0.00 0.00 0.01 0.01 0.00 0.00 0.00 0.00 0.00 0.00 0.00 0.00 0.00 0.00 0.00 0.02 0.07 0.13 0.02 0.00 0.00 0.00 0.00 0.00 0.00 0.00 0.00 0.00 0.00 0.00 0.00 0.00 0.00 0.00 0.00 0.00 0.00 0.00 0.00 0.00 0.00 0.00 0.00 0.00 0.00 0.00 0.00 0.00 0.00 0.00 0.00 0.00 0.00 0.00 0.00 0.00 0.00 0.02 0.01 0.03 0.46 0.60 0.49 0.56 0.55 0.33 0.45 0.43 0.77 0.54 0.65 0.64 1.25 1.04 0.81 1.03 0.81 0.72 0.65 0.28 0.37 0.29 0.07 0.08 0.15 0.20 0.18
0.00 0.00 0.00 0.00 0.00 0.01 0.00 0.00 0.00 0.00 0.00 0.00 0.00 0.00 0.00 0.08 0.03 0.16 0.09 0.00 0.01 0.00 0.00 0.00 0.00 0.00 0.00 0.00 0.00 0.00 0.01 0.00 0.00 0.00 0.00 0.00 0.00 0.00 0.00 0.00 0.00 0.00 0.01 0.00 0.00 0.00 0.00 0.00 0.00 0.00 0.00 0.00 0.00 0.00 0.00 0.00 0.03 0.01 0.02 0.02 0.09 0.45 0.51 0.41 0.94 0.47 0.16 0.48 0.30 0.32 0.83 1.57 0.36 0.69 0.48 0.50 0.66 0.94 0.99 0.74 0.56 0.25 0.15 0.14 0.13 0.16 0.39 0.45
0.00 0.00 0.00 0.00 0.00 0.00 0.00 0.00 0.00 0.00 0.00 0.00 0.00 0.00 0.05 0.29 0.13 0.05 0.01 0.00 0.02 0.00 0.00 0.00 0.00 0.00 0.00 0.00 0.04 0.00 0.00 0.05 0.01 0.00 0.00 0.00 0.00 0.00 0.00 0.00 0.00 0.00 0.02 0.00 0.00 0.00 0.00 0.00 0.00 0.00 0.00 0.00 0.00 0.00 0.00 0.00 0.00 0.01 0.01 0.02 0.11 0.24 0.18 0.13 0.21 0.25 0.16 0.24 0.33 0.39 0.71 0.77 0.86 0.55 0.39 0.44 0.57 0.82 0.75 0.76 0.50 0.18 0.18 0.25 0.37 0.09 0.40 1.05
0.00 0.00 0.00 0.00 0.00 0.00 0.00 0.00 0.00 0.00 0.00 0.00 0.00 0.02 0.11 0.11 0.14 0.00 0.00 0.00 0.00 0.00 0.00 0.00 0.00 0.00 0.00 0.00 0.01 0.00 0.00 0.00 0.00 0.00 0.00 0.00 0.00 0.00 0.00 0.00 0.00 0.00 0.00 0.00 0.00 0.00 0.00 0.00 0.00 0.00 0.00 0.00 0.00 0.00 0.00 0.00 0.00 0.00 0.00 0.01 0.05 0.08 0.20 0.27 0.17 0.35 0.21 0.35 0.42 0.76 0.30 0.78 0.53 1.00 0.19 0.21 0.33 0.43 0.57 0.85 1.64 0.62 0.69 0.50 0.46 0.71 0.74 1.12
0.00 0.00 0.00 0.00 0.00 0.00 0.00 0.00 0.00 0.00 0.00 0.00 0.00 0.15 0.13 0.08 0.01 0.03 0.01 0.00 0.00 0.00 0.00 0.00 0.00 0.00 0.00 0.00 0.01 0.00 0.00 0.01 0.00 0.00 0.00 0.00 0.01 0.00 0.00 0.00 0.00 0.00 0.00 0.00 0.00 0.00 0.00 0.00 0.00 0.00 0.00 0.00 0.00 0.00 0.00 0.00 0.00 0.04 0.02 0.00 0.00 0.01 0.00 0.14 0.16 0.16 0.16 0.26 0.50 0.41 0.40 0.56 0.48 0.32 0.26 0.22 0.27 0.37 0.63 0.65 0.87 0.92 0.75 0.40 0.32 1.01 0.82 0.42
0.00 0.00 0.00 0.00 0.00 0.00 0.00 0.00 0.00 0.00 0.00 0.00 0.03 0.11 0.07 0.01 0.04 0.00 0.01 0.00 0.00 0.00 0.00 0.00 0.00 0.00 0.00 0.00 0.00 0.00 0.00 0.00 0.00 0.00 0.02 0.00 0.00 0.01 0.00 0.00 0.00 0.00 0.03 0.00 0.01 0.00 0.00 0.00 0.00 0.00 0.00 0.00 0.00 0.00 0.00 0.00 0.06 0.00 0.01 0.09 0.02 0.02 0.01 0.05 0.02 0.08 0.03 0.06 0.26 0.14 0.17 0.26 0.08 0.26 1.21 0.72 0.34 0.35 0.49 0.38 0.41 0.80 0.60 0.34 0.51 0.70 0.68 0.41
0.00 0.00 0.00 0.00 0.00 0.00 0.00 0.00 0.00 0.00 0.00 0.00 0.07 0.16 0.00 0.00 0.00 0.00 0.00 0.00 0.00 0.00 0.00 0.00 0.00 0.00 0.00 0.00 0.00 0.00 0.00 0.00 0.00 0.00 0.05 0.00 0.00 0.00 0.00 0.00 0.00 0.00 0.00 0.00 0.01 0.00 0.00 0.00 0.00 0.00 0.00 0.00 0.00 0.00 0.00 0.00 0.00 0.00 0.03 0.02 0.00 0.00 0.01 0.01 0.08 0.04 0.05 0.06 0.22 0.08 0.21 0.17 0.09 0.46 0.25 0.44 0.37 0.51 0.62 0.33 0.13 0.36 0.38 0.35 0.25 0.19 0.23 0.25
0.00 0.00 0.00 0.00 0.00 0.00 0.00 0.00 0.00 0.00 0.00 0.04 0.11 0.00 0.00 0.01 0.00 0.00 0.00 0.00 0.00 0.00 0.00 0.00 0.00 0.00 0.00 0.00 0.00 0.00 0.00 0.00 0.00 0.01 0.04 0.00 0.00 0.00 0.00 0.00 0.00 0.00 0.00 0.00 0.00 0.02 0.00 0.00 0.00 0.00 0.00 0.00 0.00 0.00 0.04 0.00 0.00 0.03 0.06 0.01 0.02 0.27 0.04 0.00 0.01 0.12 0.11 0.10 0.14 0.09 0.20 0.27 0.20 0.26 0.12 0.15 0.43 0.77 0.78 0.51 0.29 0.23 0.53 0.37 0.17 0.27 0.29 0.21
0.00 0.00 0.00 0.00 0.00 0.00 0.00 0.00 0.00 0.00 0.03 0.08 0.18 0.08 0.01 0.01 0.00 0.00 0.00 0.00 0.00 0.00 0.00 0.00 0.00 0.00 0.00 0.00 0.00 0.00 0.00 0.00 0.00 0.00 0.01 0.00 0.02 0.00 0.00 0.00 0.02 0.00 0.00 0.00 0.00 0.00 0.00 0.00 0.00 0.00 0.00 0.00 0.00 0.00 0.06 0.00 0.00 0.01 0.00 0.02 0.00 0.02 0.03 0.07 0.00 0.11 0.02 0.20 0.04 0.67 0.35 0.40 0.55 0.44 0.13 0.18 0.38 0.41 0.24 0.25 0.25 0.39 0.34 0.38 0.23 0.16 0.16 0.16
0.00 0.00 0.00 0.00 0.00 0.00 0.00 0.00 0.00 0.01 0.07 0.19 0.03 0.01 0.00 0.00 0.00 0.00 0.00 0.00 0.00 0.00 0.00 0.00 0.00 0.00 0.00 0.00 0.01 0.00 0.01 0.01 0.00 0.01 0.00 0.02 0.01 0.00 0.00 0.00 0.00 0.00 0.00 0.00 0.00 0.00 0.00 0.00 0.01 0.01 0.00 0.00 0.00 0.00 0.00 0.00 0.00 0.00 0.01 0.00 0.00 0.00 0.02 0.01 0.01 0.01 0.07 0.08 0.03 0.18 0.22 0.27 0.33 0.85 0.69 0.59 0.58 0.36 0.19 0.17 0.19 0.37 0.40 0.39 0.30 0.20 0.25 0.33
0.00 0.00 0.00 0.00 0.00 0.00 0.00 0.00 0.03 0.06 0.05 0.05 0.01 0.01 0.01 0.00 0.00 0.00 0.00 0.00 0.00 0.00 0.00 0.00 0.00 0.00 0.00 0.00 0.01 0.00 0.01 0.01 0.02 0.01 0.00 0.01 0.00 0.00 0.02 0.00 0.00 0.00 0.00 0.00 0.00 0.00 0.01 0.00 0.01 0.00 0.00 0.00 0.01 0.00 0.00 0.00 0.00 0.00 0.00 0.02 0.06 0.01 0.06 0.01 0.05 0.00 0.02 0.01 0.02 0.08 0.14 0.20 0.07 0.08 0.14 0.50 0.22 0.19 0.13 0.08 0.18 0.62 0.55 0.78 0.56 0.43 0.26 0.18
0.00 0.02 0.00 0.00 0.00 0.00 0.00 0.05 0.02 0.01 0.02 0.10 0.08 0.01 0.02 0.00 0.00 0.00 0.00 0.00 0.00 0.00 0.00 0.00 0.00 0.00 0.00 0.01 0.00 0.00 0.00 0.01 0.03 0.02 0.01 0.02 0.00 0.01 0.00 0.00 0.00 0.00 0.00 0.00 0.00 0.04 0.00 0.00 0.00 0.01 0.00 0.00 0.00 0.00 0.00 0.01 0.00 0.00 0.01 0.03 0.02 0.00 0.04 0.01 0.01 0.03 0.00 0.01 0.01 0.15 0.11 0.21 0.11 0.21 0.21 0.24 0.19 0.17 0.28 0.12 0.21 0.48 0.98 0.74 0.53 0.50 0.43 0.51
0.00 0.01 0.00 0.00 0.00 0.00 0.00 0.06 0.01 0.02 0.05 0.04 0.00 0.08 0.01 0.04 0.03 0.08 0.02 0.03 0.03 0.04 0.02 0.00 0.01 0.02 0.01 0.00 0.00 0.00 0.00 0.01 0.04 0.03 0.03 0.02 0.02 0.00 0.00 0.00 0.00 0.00 0.00 0.00 0.00 0.00 0.00 0.00 0.00 0.00 0.00 0.00 0.00 0.00 0.00 0.00 0.00 0.00 0.00 0.00 0.00 0.00 0.00 0.00 0.01 0.05 0.06 0.13 0.04 0.05 0.09 0.24 0.08 0.35 0.15 0.27 0.28 0.06 0.22 0.38 1.00 0.77 0.73 1.07 0.61 0.66 0.58 0.66
0.00 0.00 0.00 0.00 0.00 0.00 0.02 0.08 0.06 0.02 0.02 0.01 0.02 0.02 0.01 0.03 0.01 0.07 0.05 0.05 0.07 0.08 0.05 0.03 0.02 0.02 0.01 0.00 0.00 0.01 0.02 0.03 0.09 0.03 0.05 0.04 0.04 0.00 0.00 0.00 0.00 0.00 0.00 0.01 0.00 0.02 0.02 0.00 0.00 0.02 0.03 0.01 0.00 0.00 0.02 0.02 0.02 0.00 0.00 0.00 0.00 0.00 0.00 0.00 0.01 0.00 0.01 0.02 0.03 0.10 0.19 0.12 0.17 0.24 0.12 0.15 0.29 0.08 0.04 0.07 0.10 0.10 0.26 0.33 0.31 0.38 1.12 1.05
0.01 0.01 0.00 0.00 0.00 0.00 0.09 0.04 0.02 0.03 0.02 0.02 0.03 0.01 0.05 0.03 0.02 0.01 0.04 0.07 0.04 0.06 0.03 0.09 0.09 0.06 0.04 0.02 0.01 0.00 0.02 0.03 0.10 0.06 0.04 0.05 0.04 0.02 0.00 0.00 0.00 0.00 0.00 0.00 0.00 0.00 0.01 0.01 0.03 0.07 0.01 0.04 0.01 0.02 0.02 0.13 0.03 0.00 0.00 0.00 0.00 0.00 0.00 0.00 0.01 0.03 0.00 0.08 0.01 0.14 0.27 0.21 0.10 0.09 0.14 0.33 0.20 0.32 0.06 0.08 0.13 0.16 0.10 0.12 0.34 0.42 0.78 0.73
0.01 0.07 0.00 0.00 0.00 0.04 0.02 0.00 0.02 0.02 0.06 0.02 0.01 0.02 0.02 0.06 0.03 0.05 0.03 0.05 0.02 0.03 0.02 0.09 0.04 0.01 0.08 0.04 0.05 0.02 0.03 0.02 0.09 0.07 0.09 0.09 0.07 0.04 0.03 0.01 0.00 0.00 0.00 0.00 0.00 0.00 0.01 0.01 0.01 0.01 0.03 0.06 0.19 0.07 0.01 0.00 0.01 0.01 0.00 0.00 0.00 0.00 0.00 0.00 0.00 0.03 0.00 0.02 0.06 0.03 0.08 0.09 0.15 0.08 0.11 0.13 0.19 0.05 0.10 0.07 0.07 0.11 0.17 0.10 0.14 0.42 0.51 0.34
0.14 0.07 0.01 0.23 0.01 0.07 0.01 0.03 0.03 0.09 0.12 0.04 0.04 0.02 0.02 0.03 0.02 0.02 0.04 0.21 0.12 0.03 0.04 0.09 0.06 0.03 0.15 0.09 0.10 0.05 0.07 0.04 0.03 0.07 0.11 0.09 0.07 0.04 0.05 0.02 0.02 0.00 0.00 0.00 0.01 0.00 0.02 0.02 0.01 0.00 0.03 0.01 0.00 0.00 0.02 0.00 0.00 0.00 0.00 0.00 0.00 0.00 0.00 0.01 0.00 0.02 0.01 0.02 0.03 0.09 0.05 0.06 0.27 0.08 0.06 0.06 0.12 0.08 0.10 0.03 0.11 0.33 0.85 0.73 0.17 0.18 0.19 0.41
0.21 0.08 0.02 0.39 0.13 0.04 0.01 0.04 0.03 0.12 0.11 0.07 0.08 0.06 0.05 0.02 0.02 0.08 0.00 0.04 0.05 0.14 0.07 0.35 0.22 0.10 0.10 0.08 0.10 0.10 0.13 0.09 0.04 0.10 0.10 0.08 0.06 0.06 0.06 0.05 0.07 0.06 0.01 0.01 0.00 0.01 0.05 0.01 0.00 0.00 0.02 0.06 0.00 0.01 0.00 0.00 0.01 0.00 0.01 0.00 0.00 0.00 0.00 0.00 0.00 0.02 0.01 0.02 0.20 0.10 0.05 0.07 0.07 0.13 0.09 0.09 0.02 0.04 0.32 0.14 0.25 0.38 0.69 0.52 0.22 0.47 1.06 0.74
0.07 0.10 0.03 0.08 0.23 0.13 0.08 0.05 0.03 0.06 0.09 0.08 0.06 0.05 0.04 0.03 0.05 0.03 0.02 0.03 0.05 0.15 0.11 0.22 0.14 0.15 0.18 0.10 0.05 0.14 0.15 0.24 0.18 0.09 0.09 0.16 0.08 0.09 0.11 0.11 0.05 0.05 0.05 0.02 0.02 0.01 0.06 0.03 0.00 0.00 0.04 0.07 0.23 0.30 0.16 0.04 0.00 0.00 0.01 0.02 0.00 0.00 0.00 0.00 0.00 0.00 0.00 0.00 0.00 0.02 0.06 0.13 0.10 0.23 0.11 0.06 0.04 0.04 0.06 0.71 0.23 0.19 0.22 0.22 0.23 0.50 0.74 0.78
0.20 0.27 0.67 0.10 0.16 0.16 0.03 0.04 0.02 0.04 0.07 0.07 0.15 0.09 0.16 0.09 0.06 0.02 0.03 0.03 0.10 0.15 0.10 0.13 0.14 0.09 0.14 0.10 0.13 0.09 0.17 0.06 0.12 0.14 0.08 0.06 0.08 0.11 0.12 0.12 0.17 0.15 0.08 0.04 0.01 0.16 0.01 0.11 0.01 0.03 0.02 0.02 0.11 0.11 0.19 0.22 0.20 0.07 0.00 0.01 0.01 0.00 0.01 0.00 0.01 0.01 0.01 0.01 0.02 0.02 0.04 0.14 0.34 0.14 0.06 0.05 0.04 0.05 0.01 0.58 0.33 0.28 0.36 0.53 0.43 0.47 0.56 0.89
0.19 0.71 0.72 0.67 0.30 0.13 0.26 0.07 0.08 0.08 0.11 0.07 0.13 0.17 0.09 0.16 0.17 0.08 0.08 0.03 0.05 0.22 0.15 0.12 0.09 0.07 0.06 0.10 0.09 0.12 0.10 0.05 0.02 0.02 0.03 0.03 0.09 0.14 0.15 0.22 0.09 0.22 0.13 0.07 0.07 0.11 0.01 0.07 0.00 0.01 0.03 0.04 0.06 0.09 0.12 0.07 0.11 0.22 0.00 0.00 0.01 0.01 0.06 0.02 0.03 0.03 0.02 0.03 0.07 0.03 0.06 0.18 0.29 0.19 0.11 0.05 0.04 0.05 0.11 0.34 0.51 0.84 0.62 0.56 0.55 0.79 0.72 0.82
0.50 0.64 0.73 0.90 0.64 0.25 0.15 0.06 0.11 0.12 0.17 0.06 0.18 0.23 0.11 0.10 0.06 0.14 0.14 0.04 0.09 0.26 0.24 0.10 0.11 0.11 0.08 0.11 0.12 0.12 0.05 0.02 0.01 0.00 0.00 0.00 0.01 0.02 0.03 0.05 0.06 0.08 0.13 0.09 0.04 0.11 0.06 0.15 0.08 0.06 0.06 0.02 0.08 0.32 0.13 0.02 0.03 0.06 0.11 0.02 0.01 0.01 0.01 0.01 0.02 0.03 0.05 0.06 0.04 0.05 0.37 0.18 0.16 0.07 0.10 0.15 0.15 0.18 0.14 0.49 0.45 0.60 0.59 0.64 0.89 1.36 1.01 1.04